KC3VCX Weather Reports


Display with metric or nautical units.
time (UTC)temp
F
wind
direction
speed
MPH
gust
MPH
rain 1hr
in
rain 24hr
in
rain mn
in
humidity
%
barometer
mb
20260504041759 46 70 0.0 0.0 0.00 0.00 0.00 58 1015.6
20260504041255 46 70 0.0 1.0 0.00 0.00 0.00 57 1015.6
20260504040752 46 72 0.0 0.0 0.00 0.00 0.00 57 1015.5
20260504040249 46 70 0.0 0.0 0.00 0.00 0.00 57 1015.7
20260504035745 46 72 0.0 0.0 0.00 0.00 0.00 58 1015.7
20260504035242 47 72 0.0 0.0 0.00 0.00 0.00 57 1015.7
20260504034740 46 98 0.0 0.0 0.00 0.00 0.00 57 1015.7
20260504034237 46 100 0.0 0.0 0.00 0.00 0.00 58 1015.8
20260504033735 46 100 0.0 0.0 0.00 0.00 0.00 59 1015.8
20260504033232 46 100 0.0 0.0 0.00 0.00 0.00 59 1015.8
20260504032729 46 100 0.0 0.0 0.00 0.00 0.00 58 1015.7
20260504032226 46 101 0.0 0.0 0.00 0.00 0.00 58 1015.7
20260504031722 47 101 0.0 0.0 0.00 0.00 0.00 58 1015.7
20260504031220 47 101 0.0 0.0 0.00 0.00 0.00 57 1015.7
20260504030716 48 101 0.0 0.0 0.00 0.00 0.00 55 1015.7
20260504030213 48 100 0.0 0.0 0.00 0.00 0.00 55 1015.8
20260504025709 48 83 0.0 0.0 0.00 0.00 0.00 54 1015.8
20260504025206 48 84 0.0 0.0 0.00 0.00 0.00 54 1015.9
20260504024704 48 88 0.0 1.0 0.00 0.00 0.00 55 1015.9
20260504024200 49 100 0.0 0.0 0.00 0.00 0.00 54 1016.1
20260504023656 48 127 1.0 1.0 0.00 0.00 0.00 54 1016.0
20260504023152 49 110 0.0 0.0 0.00 0.00 0.00 54 1015.9
20260504022649 49 114 0.0 0.0 0.00 0.00 0.00 52 1015.8
20260504022144 49 47 0.0 0.0 0.00 0.00 0.00 53 1015.9
20260504021643 48 66 0.0 0.0 0.00 0.00 0.00 54 1015.9
20260504021139 48 66 0.0 0.0 0.00 0.00 0.00 54 1016.1
20260504020637 48 67 0.0 0.0 0.00 0.00 0.00 55 1016.1
20260504020132 47 76 0.0 0.0 0.00 0.00 0.00 56 1016.2
20260504015629 48 78 0.0 0.0 0.00 0.00 0.00 55 1016.0
20260504015126 48 78 0.0 0.0 0.00 0.00 0.00 54 1016.0
20260504014621 48 78 0.0 0.0 0.00 0.00 0.00 54 1016.2
20260504014119 49 78 0.0 0.0 0.00 0.00 0.00 53 1015.8
20260504013616 49 71 0.0 0.0 0.00 0.00 0.00 52 1016.0
20260504013113 49 66 0.0 0.0 0.00 0.00 0.00 54 1015.9
20260504012610 50 67 0.0 0.0 0.00 0.00 0.00 52 1015.8
20260504012108 50 66 0.0 0.0 0.00 0.00 0.00 52 1015.8
20260504011605 50 97 0.0 0.0 0.00 0.00 0.00 51 1015.7
20260504011101 51 37 0.0 0.0 0.00 0.00 0.00 51 1015.6
20260504010556 51 17 0.0 0.0 0.00 0.00 0.00 49 1015.7
20260504010053 51 50 0.0 1.0 0.00 0.00 0.00 49 1015.8
20260504005550 51 198 1.0 1.0 0.00 0.00 0.00 48 1015.5
20260504005047 51 41 0.0 0.0 0.00 0.00 0.00 49 1015.7
20260504004545 52 82 0.0 0.0 0.00 0.00 0.00 48 1015.7
20260504004042 52 44 0.0 0.0 0.00 0.00 0.00 48 1015.6
20260504003538 52 332 1.0 1.0 0.00 0.00 0.00 47 1015.7
20260504003035 53 273 1.0 2.0 0.00 0.00 0.00 47 1015.7
20260504002532 53 316 4.0 6.0 0.00 0.00 0.00 47 1015.7
20260504002029 53 311 0.0 1.0 0.00 0.00 0.00 46 1015.5
20260504001527 53 29 0.0 0.0 0.00 0.00 0.00 47 1015.7
20260504001023 53 66 0.0 0.0 0.00 0.00 0.00 46 1015.7
20260504000520 53 239 1.0 1.0 0.00 0.00 0.00 45 1015.5
20260504000017 54 95 1.0 1.0 0.00 0.00 0.00 45 1015.5
20260503235515 54 143 1.0 2.0 0.00 0.00 0.00 45 1015.4
20260503235011 54 303 4.0 7.0 0.00 0.00 0.00 45 1015.5
20260503234509 55 44 1.0 1.0 0.00 0.00 0.00 44 1015.5
20260503234008 55 285 5.0 7.0 0.00 0.00 0.00 43 1015.7
20260503233503 55 232 5.0 7.0 0.00 0.00 0.00 43 1015.6
20260503232959 55 345 4.0 7.0 0.00 0.00 0.00 43 1015.6
20260503232456 56 282 2.0 3.0 0.00 0.00 0.00 43 1015.7
20260503231954 56 274 3.0 3.0 0.00 0.00 0.00 43 1015.7
20260503231452 56 217 1.0 2.0 0.00 0.00 0.00 43 1015.6
20260503230948 56 303 2.0 4.0 0.00 0.00 0.00 43 1015.6
20260503230445 56 336 3.0 4.0 0.00 0.00 0.00 42 1015.7
20260503225942 56 262 2.0 2.0 0.00 0.00 0.00 42 1015.6
20260503225439 57 208 1.0 1.0 0.00 0.00 0.00 43 1015.6
20260503224934 57 300 5.0 6.0 0.00 0.00 0.00 41 1015.8
20260503224432 56 72 1.0 2.0 0.00 0.00 0.00 43 1015.6
20260503223929 56 282 5.0 7.0 0.00 0.00 0.00 41 1015.8
20260503223427 57 255 2.0 3.0 0.00 0.00 0.00 42 1015.9
20260503222922 57 298 6.0 8.0 0.00 0.00 0.00 40 1015.8
20260503222421 57 218 3.0 3.0 0.00 0.00 0.00 41 1015.9
20260503221919 57 273 6.0 7.0 0.00 0.00 0.00 40 1015.7
20260503221417 57 286 2.0 4.0 0.00 0.00 0.00 40 1015.7
20260503220913 58 286 9.0 11.0 0.00 0.00 0.00 38 1015.9
20260503220410 57 263 3.0 3.0 0.00 0.00 0.00 42 1015.9
20260503215907 56 315 6.0 7.0 0.00 0.00 0.00 41 1015.8
20260503215404 56 295 3.0 4.0 0.00 0.00 0.00 40 1016.0
20260503214901 57 167 3.0 3.0 0.00 0.00 0.00 43 1015.8
20260503214359 58 299 6.0 9.0 0.00 0.00 0.00 39 1015.8
20260503213856 58 321 9.0 11.0 0.00 0.00 0.00 39 1015.8
20260503213354 59 352 2.0 2.0 0.00 0.00 0.00 40 1015.6
20260503212850 59 259 8.0 11.0 0.00 0.00 0.00 38 1015.4
20260503212348 57 323 2.0 4.0 0.00 0.00 0.00 40 1015.8
20260503211845 57 354 2.0 3.0 0.00 0.00 0.00 40 1015.6
20260503211342 59 322 3.0 4.0 0.00 0.00 0.00 39 1015.8
20260503210837 58 247 6.0 8.0 0.00 0.00 0.00 39 1015.8
20260503210335 57 224 2.0 3.0 0.00 0.00 0.00 40 1015.9
20260503205829 57 299 5.0 6.0 0.00 0.00 0.00 40 1015.8
20260503205326 57 303 5.0 8.0 0.00 0.00 0.00 39 1016.0
20260503204823 58 223 4.0 6.0 0.00 0.00 0.00 40 1016.0
20260503204320 57 318 4.0 6.0 0.00 0.00 0.00 40 1016.2
20260503203817 57 289 10.0 14.0 0.00 0.00 0.00 40 1016.1
20260503203315 57 288 4.0 4.0 0.00 0.00 0.00 41 1016.1
20260503202811 58 122 1.0 1.0 0.00 0.00 0.00 39 1016.2
20260503202310 57 242 3.0 6.0 0.00 0.00 0.00 42 1016.0
20260503201808 57 265 8.0 9.0 0.00 0.00 0.00 40 1016.1
20260503201304 56 231 4.0 6.0 0.00 0.00 0.00 41 1016.4
20260503200801 56 293 2.0 3.0 0.00 0.00 0.00 42 1016.3
20260503200257 56 318 13.0 17.0 0.00 0.00 0.00 40 1016.1
20260503195755 56 268 3.0 4.0 0.00 0.00 0.00 41 1016.3
20260503195252 57 320 6.0 9.0 0.00 0.00 0.00 39 1016.5
20260503194749 56 321 6.0 11.0 0.00 0.00 0.00 41 1016.6
20260503194244 55 263 9.0 10.0 0.00 0.00 0.00 40 1016.5
20260503193741 56 279 8.0 10.0 0.00 0.00 0.00 39 1017.0
20260503193237 58 296 6.0 7.0 0.00 0.00 0.00 38 1016.9
20260503192732 57 218 7.0 10.0 0.00 0.00 0.00 39 1017.0
20260503192228 56 98 4.0 6.0 0.00 0.00 0.00 40 1017.1
20260503191725 57 275 5.0 6.0 0.00 0.00 0.00 41 1016.9
20260503191222 56 230 2.0 4.0 0.00 0.00 0.00 43 1017.1
20260503190719 56 329 9.0 11.0 0.00 0.00 0.00 41 1017.2
20260503190215 56 288 4.0 4.0 0.00 0.00 0.00 42 1017.1
20260503185713 56 264 6.0 8.0 0.00 0.00 0.00 41 1017.3
20260503185208 56 310 3.0 3.0 0.00 0.00 0.00 41 1017.3
20260503184703 55 248 6.0 8.0 0.00 0.00 0.00 43 1017.3
20260503184200 55 283 5.0 8.0 0.00 0.00 0.00 43 1017.6
20260503183656 55 22 4.0 6.0 0.00 0.00 0.00 42 1017.4
20260503183153 55 301 3.0 3.0 0.00 0.00 0.00 44 1017.3
20260503182651 55 252 6.0 8.0 0.00 0.00 0.00 42 1017.6
20260503182150 55 226 4.0 4.0 0.00 0.00 0.00 44 1017.9
20260503181646 55 324 4.0 4.0 0.00 0.00 0.00 41 1017.8
20260503181143 54 269 5.0 6.0 0.00 0.00 0.00 43 1017.9
20260503180640 54 280 6.0 10.0 0.00 0.00 0.00 42 1018.0
20260503180138 55 65 0.0 1.0 0.00 0.00 0.00 43 1018.0
20260503175635 56 247 5.0 6.0 0.00 0.00 0.00 41 1018.0
20260503175132 55 189 4.0 4.0 0.00 0.00 0.00 44 1018.0
20260503174628 54 271 3.0 4.0 0.00 0.00 0.00 46 1017.9
20260503174126 55 341 2.0 3.0 0.00 0.00 0.00 41 1017.9
20260503173620 52 265 5.0 8.0 0.00 0.00 0.00 44 1018.0
20260503173117 53 248 6.0 9.0 0.00 0.00 0.00 42 1018.3
20260503172614 55 307 7.0 8.0 0.00 0.00 0.00 40 1018.2
20260503172112 53 333 2.0 3.0 0.00 0.00 0.00 45 1018.2
20260503171608 54 345 4.0 8.0 0.00 0.00 0.00 41 1018.2
20260503171105 53 251 3.0 4.0 0.00 0.00 0.00 43 1018.4
20260503170601 52 296 4.0 7.0 0.00 0.00 0.00 43 1018.4
20260503150954 49 220 3.0 4.0 0.00 0.00 0.00 51 1019.0
20260503150450 49 214 4.0 7.0 0.00 0.00 0.00 49 1019.3
20260503131337 43 286 4.0 4.0 0.00 0.00 0.00 65 1019.7
20260503130830 42 254 3.0 3.0 0.00 0.00 0.00 66 1019.5
20260503130327 42 302 5.0 6.0 0.00 0.00 0.00 66 1019.7
20260503110720 33 73 0.0 0.0 0.00 0.00 0.00 87 1018.8
20260503110217 32 92 0.0 0.0 0.00 0.00 0.00 88 1018.7
20260503100143 31 22 0.0 0.0 0.00 0.00 0.00 88 1018.1
20260503081538 32 8 1.0 1.0 0.00 0.00 0.00 86 1018.1
20260503081036 32 356 1.0 1.0 0.00 0.00 0.00 86 1018.1
20260503080532 32 357 1.0 1.0 0.00 0.00 0.00 87 1018.0
20260503072506 35 341 1.0 1.0 0.00 0.00 0.00 83 1017.7
20260503072003 34 305 0.0 1.0 0.00 0.00 0.00 81 1017.8
20260503071500 34 353 0.0 0.0 0.00 0.00 0.00 81 1017.7
20260503070955 35 353 0.0 0.0 0.00 0.00 0.00 81 1017.6
20260503070453 35 347 0.0 1.0 0.00 0.00 0.00 80 1017.7
20260503054906 34 337 2.0 2.0 0.00 0.00 0.00 80 1017.9
20260503054402 34 347 0.0 1.0 0.00 0.00 0.00 79 1017.8
20260503053900 35 344 1.0 1.0 0.00 0.00 0.00 79 1017.8
20260503053358 33 315 1.0 2.0 0.00 0.00 0.00 83 1017.8
20260503052854 33 340 1.0 2.0 0.00 0.00 0.00 85 1017.8
20260503052351 33 322 1.0 1.0 0.00 0.00 0.00 85 1018.0
20260503051847 33 320 1.0 2.0 0.00 0.00 0.00 85 1018.0
20260503051344 33 358 1.0 1.0 0.00 0.00 0.00 85 1018.1
20260503050841 33 358 1.0 1.0 0.00 0.00 0.00 85 1018.0
20260503050337 33 358 1.0 1.0 0.00 0.00 0.00 84 1018.1
20260503045835 33 358 0.0 1.0 0.00 0.00 0.00 84 1018.2
20260503045332 33 358 1.0 1.0 0.00 0.00 0.00 84 1018.2
20260503044828 34 351 1.0 1.0 0.00 0.00 0.00 82 1018.2
20260503044325 34 352 1.0 1.0 0.00 0.00 0.00 81 1018.2
20260503043822 34 347 1.0 1.0 0.00 0.00 0.00 81 1018.2
20260503043319 34 320 1.0 2.0 0.00 0.00 0.00 82 1018.2
20260503042815 34 336 1.0 1.0 0.00 0.00 0.00 81 1018.2
20260503042312 34 337 1.0 1.0 0.00 0.00 0.00 81 1018.2